星链-32845 (STARLINK-32845)

导读 | 豆包AI

STARLINK-32845是美国太空探索技术公司(SpaceX)星链计划的低轨通信卫星,属于星链第6批次,于2025年1月24日发射升空,目前处于在轨运行状态。该卫星运行在约475公里近地轨道,轨道倾角53.159°,设计寿命5-7年,配备星链V1.0平台,旨在为全球提供高速低延迟卫星互联网服务,助力缩小全球数字鸿沟,同时可为军事、航空等领域提供通信保障。

基本信息
目录编号:
62815
目录名称:
STARLINK-32845
国际标识:
2025-018K
轨道中心:
EARTH
卫星名称:
星链-32845
卫星全名:
星链-32845 (STARLINK-32845)
卫星状态:
在轨 (已飞行415 天)
发射日期:
2025-01-24 UTC
国别 :
美国 (US)
星等 :
--
轨道信息
数据来源 国际轨道数据
星历时间: 2026-03-14T22:27:06+0800
11小时前
查看轨道信息
半长轴: 6853.161km
偏心率: 0.0001298
轨道倾角: 53.160°
近地点辐角 144.483°
升交点赤经 286.561°
平近点角 215.625°
近地点: 474.134km
远地点: 475.914km
周期: 94.101分钟
每日圈数: 15.30264
详细信息
固有亮度:
5
最大亮度:
2.5
卫星平台:
Starlink V1.0
覆盖范围:
全球
运营商:
太空探索技术公司
运营商所在国:
美国
制造商(研发单位):
太空探索技术公司
制造商所在国:
美国
使用方式:
暂无
卫星简介
Starlink 计划是 SpaceX 推出的全球卫星互联网项目,通过发射低轨道卫星,为全球尤其是偏远地区提供高速、低延迟的互联网服务。自 2019 年起,Starlink 已部署数千颗卫星,旨在缩小全球数字鸿沟,推动互联网普及。该项目还为军事、航空等行业提供通信支持,带来广泛经济效益。
2D轨道图
3D轨道图
轨道高度分析图
轨道倾角分析图
轨道综合分析图
查看轨道综合分析图